EW4378 Weather Reports


Display with metric or nautical units.
time (UTC)temp
F
wind
direction
speed
MPH
gust
MPH
rain 1hr
in
rain 24hr
in
rain mn
in
humidity
%
barometer
mb
20260506181545 56 191 23.0 29.0 0.00 0.00 0.00 1 1010.1
20260506180043 56 218 22.0 28.0 0.00 0.00 0.00 1 1010.4
20260506174536 56 205 22.0 28.0 0.00 0.00 0.00 1 1010.5
20260506173038 56 230 22.0 30.0 0.00 0.00 0.00 1 1010.9
20260506171526 56 200 23.0 31.0 0.00 0.00 0.00 1 1011.1
20260506170021 56 215 22.0 30.0 0.00 0.00 0.00 1 1011.0
20260506164517 56 234 25.0 30.0 0.00 0.00 0.00 1 1011.1
20260506163012 56 217 25.0 34.0 0.00 0.00 0.00 1 1011.1
20260506161508 56 215 27.0 33.0 0.00 0.00 0.00 1 1011.3
20260506160010 56 177 26.0 32.0 0.00 0.00 0.00 1 1011.5
20260506154559 56 234 24.0 32.0 0.00 0.00 0.00 1 1011.8
20260506153055 56 192 24.0 33.0 0.00 0.00 0.00 1 1011.9
20260506151549 56 197 21.0 29.0 0.00 0.00 0.00 1 1011.8
20260506150045 56 205 19.0 25.0 0.00 0.00 0.00 1 1012.0
20260506144540 56 229 20.0 28.0 0.00 0.00 0.00 1 1012.2
20260506143037 56 215 20.0 27.0 0.00 0.00 0.00 1 1012.2
20260506141531 56 220 19.0 27.0 0.00 0.00 0.00 1 1012.2
20260506140027 56 210 20.0 29.0 0.00 0.00 0.00 1 1012.4
20260506134522 56 218 20.0 25.0 0.00 0.00 0.00 1 1012.5
20260506133018 56 231 20.0 25.0 0.00 0.00 0.00 1 1012.5
20260506131518 56 217 17.0 23.0 0.00 0.00 0.00 1 1012.2
20260506130017 56 167 19.0 25.0 0.00 0.00 0.00 1 1012.2
20260506124515 56 210 20.0 26.0 0.00 0.00 0.00 1 1012.5
20260506123016 56 215 21.0 29.0 0.00 0.00 0.00 1 1012.6
20260506121508 56 203 23.0 31.0 0.00 0.00 0.00 1 1012.4
20260506120004 56 210 21.0 30.0 0.00 0.00 0.00 1 1012.4
20260506114503 56 204 21.0 28.0 0.00 0.00 0.00 1 1012.2
20260506113002 56 226 22.0 29.0 0.00 0.00 0.00 1 1012.5
20260506111559 55 268 20.0 26.0 0.00 0.00 0.00 1 1012.4
20260506110054 56 248 21.0 27.0 0.00 0.00 0.00 1 1012.4
20260506104549 56 225 19.0 27.0 0.00 0.00 0.00 1 1012.2
20260506103044 56 233 21.0 28.0 0.00 0.00 0.00 1 1012.4
20260506101540 56 181 22.0 32.0 0.00 0.00 0.00 1 1012.3
20260506100035 56 236 23.0 32.0 0.00 0.00 0.00 1 1012.2
20260506094535 56 214 22.0 29.0 0.00 0.00 0.00 1 1012.2
20260506093041 56 210 22.0 28.0 0.00 0.00 0.00 1 1012.1
20260506091524 56 221 22.0 31.0 0.00 0.00 0.00 1 1012.1
20260506090016 56 238 24.0 31.0 0.00 0.00 0.00 1 1012.2
20260506084511 56 210 23.0 30.0 0.00 0.00 0.00 1 1012.3
20260506083006 56 219 24.0 30.0 0.00 0.00 0.00 1 1012.4
20260506081504 56 234 22.0 31.0 0.00 0.00 0.00 1 1012.6
20260506080112 57 226 23.0 30.0 0.00 0.00 0.00 1 1012.5
20260506073054 57 242 21.0 28.0 0.00 0.00 0.00 1 1013.1
20260506071550 57 219 22.0 31.0 0.00 0.00 0.00 1 1012.9
20260506061535 57 231 25.0 30.0 0.00 0.00 0.00 1 1012.6
20260506044512 58 233 22.0 30.0 0.00 0.00 0.00 1 1013.0
20260506043100 58 225 23.0 32.0 0.00 0.00 0.00 1 1013.0
20260506041558 58 207 26.0 31.0 0.00 0.00 0.00 1 1013.1
20260506040052 58 226 24.0 30.0 0.00 0.00 0.00 1 1013.2
20260506034550 57 232 22.0 27.0 0.00 0.00 0.00 1 1013.4
20260506033045 57 230 20.0 26.0 0.00 0.00 0.00 1 1013.5
20260506031554 57 240 19.0 24.0 0.00 0.00 0.00 1 1013.4
20260506030043 57 237 20.0 24.0 0.00 0.00 0.00 1 1013.5
20260506024535 57 243 19.0 27.0 0.00 0.00 0.00 1 1013.5
20260506023026 57 238 22.0 27.0 0.00 0.00 0.00 1 1013.4
20260506021522 57 231 22.0 28.0 0.00 0.00 0.00 1 1013.4
20260506020021 57 232 22.0 28.0 0.00 0.00 0.00 1 1013.3
20260506014520 57 225 24.0 30.0 0.00 0.00 0.00 1 1013.1
20260506013023 57 232 23.0 28.0 0.00 0.00 0.00 1 1013.1
20260506011522 57 237 25.0 31.0 0.00 0.00 0.00 1 1012.9
20260506010018 57 229 28.0 35.0 0.00 0.00 0.00 1 1012.7
20260506004518 58 236 28.0 37.0 0.00 0.00 0.00 1 1012.3
20260506003016 58 224 29.0 40.0 0.00 0.00 0.00 1 1012.1
20260506001517 58 233 29.0 35.0 0.00 0.00 0.00 1 1012.0
20260506000014 58 233 29.0 36.0 0.00 0.00 0.00 1 1011.9
20260505234522 58 218 27.0 37.0 0.00 0.00 0.00 1 1011.5
20260505233006 58 266 29.0 41.0 0.00 0.00 0.00 1 1011.3
20260505231600 58 214 29.0 40.0 0.00 0.00 0.00 1 1011.2
20260505230056 58 256 32.0 39.0 0.00 0.00 0.00 1 1010.9
20260505224552 58 237 29.0 40.0 0.00 0.00 0.00 1 1010.9
20260505223059 58 193 28.0 42.0 0.00 0.00 0.00 1 1010.8
20260505221556 58 219 31.0 41.0 0.00 0.00 0.00 1 1010.8
20260505220040 57 217 28.0 36.0 0.00 0.00 0.00 1 1010.8
20260505214539 57 232 28.0 35.0 0.00 0.00 0.00 1 1010.5
20260505213028 57 207 28.0 37.0 0.00 0.00 0.00 1 1010.5
20260505211528 57 204 30.0 39.0 0.00 0.00 0.00 1 1010.4
20260505210030 58 224 27.0 35.0 0.00 0.00 0.00 1 1010.2
20260505204528 58 276 26.0 34.0 0.00 0.00 0.00 1 1010.3
20260505203024 57 193 24.0 31.0 0.00 0.00 0.00 1 1010.4
20260505201517 57 214 24.0 33.0 0.00 0.00 0.00 1 1010.5
20260505200021 57 215 24.0 32.0 0.00 0.00 0.00 1 1010.6
20260505194507 56 257 24.0 30.0 0.00 0.00 0.00 1 1011.0
20260505193002 56 210 20.0 25.0 0.00 0.00 0.00 1 1011.2
20260505191558 56 217 18.0 24.0 0.00 0.00 0.00 1 1011.7
20260505190059 56 245 14.0 18.0 0.00 0.00 0.00 1 1012.3
20260505184550 55 248 14.0 19.0 0.00 0.00 0.00 1 1012.5
20260505183052 55 236 16.0 19.0 0.00 0.00 0.00 1 1012.5